sat.trackr.live / text

‹ back to catalog

STARLINK-35242

NORAD 65493 · 2025-198B

PAYLOAD ACTIVE UNKNOWN

§ Identity

Operator
Country
US
Launch date
2025-09-05
Launch site
AFETR
Launch vehicle
Mass (kg)
RCS (m²)

Purposes: comms

External: N2YO · Heavens-Above · Gunter

§ Orbital elements

Epoch: 2026-05-24T19:52:03.381888Z

Period
93.85 min
Inclination
53.1602°
Eccentricity
0.0001268
Mean motion
15.34386064 rev/d
Perigee alt
461.9 km
Apogee alt
463.6 km
Semi-major
6,840.9 km
B*
8.4058e-4
RAAN
276.1816°
Arg perigee
86.3941°
Mean anomaly
273.7207°
Rev number
4,029

§ Raw data

STARLINK-352421 65493U 25198B   26144.82781692  .00028118  00000+0  84058-3 0  99992 65493  53.1602 276.1816 0001268  86.3941 273.7207 15.34386064 40298

JSON: /api/v1/satellites/65493 · /tle

For live sub-satellite position, see the globe view (requires WebGL).

§ Visibility from observer

Set your observer location to see the next 7 days of passes ≥ 10°. The values pass through the URL so the page stays shareable.

No JS? Fill the form by hand. The geolocation button needs JavaScript.